AirNav   Pilot Hours Calculator
 
 1466 users online  

KJRB Downtown Manhattan/Wall Street Heliport
New York, New York, USA

GOING TO NEW YORK?


FAA INFORMATION EFFECTIVE 22 APRIL 2021

Location

FAA Identifier: JRB
Lat/Long: 40-42-04.3690N 074-00-32.5020W
40-42.072817N 074-00.541700W
40.7012136,-74.0090283
(estimated)
Elevation: 7 ft. / 2 m (estimated)
Variation: 13W (2010)
From city: 3 miles SE of NEW YORK, NY
Time zone: UTC -4 (UTC -5 during Standard Time)
Zip code: 10004

Heliport Operations

Heliport use: Open to the public
Activation date: 11/1972
Control tower: no
ARTCC: NEW YORK CENTER
FSS: NEW YORK FLIGHT SERVICE STATION
NOTAMs facility: ISP (NOTAM-D service available)
Attendance: SAT 0700-1900, ALL SUN 0700-1700, ALL MON-FRI 0700-2200
ATTENDANCE EARLY HRS HOL & WKND SKEDS REQUIRES 24 HRS NOTICE CALL 212-248-7240.
Wind indicator: lighted
Segmented circle: no
Lights: SS-SR
Landing fee: yes

Heliport Communications

CTAF/UNICOM: 123.05
WX AWOS-3PT: 128.175 (212-425-1534)
NEW YORK APPROACH: 120.8
NEW YORK DEPARTURE: 120.8
WX ASOS at EWR (7 nm W): PHONE 973-621-2892
WX ASOS at LGA (8 nm NE): PHONE 718-672-6317
WX ASOS at TEB (9 nm N): PHONE 201-393-0855
WX ASOS at JFK (11 nm E): 128.725 (718-656-0956)
WX AWOS-3 at LDJ (12 nm SW): 124.025 (908-862-7383)
WX ASOS at CDW (16 nm NW): 135.5 (973-575-4417)
WX AWOS-3 at MMU (19 nm W): PHONE 973-290-0135

Nearby radio navigation aids

VOR radial/distance  VOR name  Freq  Var
CRIr327/7.5CANARSIE VOR/DME112.3011W
LGAr244/8.1LA GUARDIA VOR/DME113.1012W
TEBr176/9.2TETERBORO VOR/DME108.4011W
JFKr303/11.6KENNEDY VOR/DME115.9012W
COLr027/24.4COLTS NECK VOR/DME115.4011W
DPKr272/32.5DEER PARK VOR/DME117.7012W
SAXr143/32.6SPARTA VORTAC115.7011W
SBJr088/34.1SOLBERG VOR/DME112.9010W
RBVr047/37.3ROBBINSVILLE VORTAC113.8010W
BWZr110/37.4BROADWAY VOR/DME114.2011W
CMKr221/39.8CARMEL VOR/DME116.6012W

 
NDB name  Hdg/Dist  Freq  Var  ID
TORBY150/8.421412WTE - .
CHATHAM110/19.325413WCAT -.-. .- -
BABYLON287/28.527514WBBN -... -... -.

Heliport Services

Fuel available: A
Airframe service: NONE
Powerplant service: NONE
Bottled oxygen: NONE
Bulk oxygen: NONE

Runway Information

Helipad H1

Dimensions: 62 x 62 ft. / 19 x 19 m
Surface: concrete, in good condition
Weight bearing capacity: 
Single wheel: 50.0
Runway edge lights: PERI
Latitude: 40-42.072817N
Longitude: 074-00.541700W
Elevation: 7.0 ft.
Traffic pattern: leftleft
Markings: basic, in good condition

Heliport Ownership and Management from official FAA records

Ownership: Publicly-owned
Owner: ECONOMIC DEVELOPMENT CORP
110 WILLIAM ST
NEW YORK, NY 10038
Phone 212-248-7240
Manager: MR. BRIAN TOLBERT
PIER 6 EAST RIVER
NEW YORK, NY 10004
Phone 212-248-7240
SAKER AVIATION

Heliport Operational Statistics

Aircraft operations: avg 86/day *
85% air taxi
14% transient general aviation
<1% military
* for 12-month period ending 30 April 2018

Additional Remarks

NO FLTS OR APCHS OVER FDR DRIVE; TWO-WAY RDO RQRD.
BIRDS ON & INVOF HELIPORT.
BOATS MAY NAVIGATE IN WATER ALONG HELIPORT PIER.
13 HELICOPTER PARKING SPACES WITH ADDITIONAL TRANSIENT POSITIONS AVBL. FIRE STAND PIPES ON SITE.
FOR CD CTC NEW YORK APCH AT 516-683-2849.

Instrument Procedures

NOTE: All procedures below are presented as PDF files. If you need a reader for these files, you should download the free Adobe Reader.

NOT FOR NAVIGATION. Please procure official charts for flight.
FAA instrument procedures published for use from 22 April 2021 at 0901Z to 20 May 2021 at 0900z.

NOTE: Special Take-Off Minimums/Departure Procedures apply **CHANGED**   download (442KB)

Other nearby airports with instrument procedures:

6N5 - East 34th Street Heliport (3 nm NE)
KJRA - West 30th St Heliport (3 nm N)
KEWR - Newark Liberty International Airport (7 nm W)
KLGA - LaGuardia Airport (8 nm NE)
KTEB - Teterboro Airport (9 nm N)
KJFK - John F Kennedy International Airport (11 nm E)
KLDJ - Linden Airport (12 nm SW)
KCDW - Essex County Airport (16 nm NW)
KMMU - Morristown Municipal Airport (19 nm W)
 
Loc | Ops | Rwys | IFR | FBO | Links
Com | Nav | Svcs | Stats | Notes
Area around KJRB (Downtown Manhattan/Wall Street Heliport)
 
Road maps at: MapQuest Bing Google
 
Aerial photo
WARNING: Photo may not be current or correct
Aerial photo of KJRB (Downtown Manhattan/Wall Street Heliport)
Photo by New York Jet Charter Flights by GiveJet jetcharterrewards.com/newyork.htm
Photo taken 01-May-2014
looking northeast.

Do you have a better or more recent aerial photo of Downtown Manhattan/Wall Street Heliport that you would like to share? If so, please send us your photo.

 
Sectional chart

 
Airport distance calculator
Flying to Downtown Manhattan/Wall Street Heliport? Find the distance to fly.

From to KJRB

Sunrise and sunset
Times for 10-May-2021
 Local
(UTC-4)
 Zulu
(UTC)
Morning civil twilight05:1409:14
Sunrise05:4509:45
Sunset20:0024:00
Evening civil twilight20:3000:30

Current date and time
Zulu (UTC)  10-May-2021 21:45:19
Local (UTC-4)  10-May-2021 17:45:19
 
METAR
KJRB 102056Z AUTO 28006KT 10SM SCT047 OVC055 16/06 A2993 RMK AO2 SLP136 T01610056 53010
KNYC 
5nm N 
102051Z AUTO 31007KT 270V330 10SM OVC044 15/04 A2994 RMK AO2 SLP131 T01500044 51009
KEWR 
7nm W 
102051Z 31012KT 10SM FEW038 BKN050 BKN250 17/05 A2992 RMK AO2 SLP132 T01670050 51010
KLGA 
8nm NE 
102051Z 33012KT 10SM BKN043 OVC055 15/04 A2991 RMK AO2 SLP127 T01500044 51008
KTEB 
10nm N 
102051Z 30011KT 10SM OVC050 14/06 A2991 RMK AO2 SLP128 T01440056 51010
KJFK 
12nm E 
102051Z 31010KT 10SM SCT044 BKN055 16/06 A2992 RMK AO2 SLP130 T01560061 51006
KLDJ 
12nm SW 
102135Z AUTO 35009KT 10SM OVC050 15/04 A2993 RMK AO2 T01530038
KCDW 
17nm NW 
102053Z 31007KT 10SM OVC047 15/04 A2993 RMK AO2 SLP140 T01500039 51011
KMMU 
19nm W 
102045Z 02006KT 10SM SCT041 OVC048 15/07 A2994
TAF
KEWR 
7nm W 
101741Z 1018/1124 33008KT P6SM BKN035 FM101900 30010G17KT P6SM BKN040 FM102200 30010KT P6SM BKN050 FM110100 28007KT P6SM SCT250 FM110600 30008KT P6SM BKN250 FM111200 28012KT P6SM SCT080 BKN250 FM111600 29010G17KT P6SM BKN100 FM111800 27016G22KT P6SM BKN100
KLGA 
8nm NE 
101741Z 1018/1124 33011KT P6SM BKN035 FM101900 32009KT P6SM VCSH BKN035 FM102200 30007KT P6SM BKN050 FM110200 30008KT P6SM SCT250 FM111200 30012KT P6SM SCT100 BKN250 FM111600 29013G20KT P6SM BKN100 FM111800 25016G22KT P6SM BKN100
KTEB 
10nm N 
101741Z 1018/1124 32008KT P6SM BKN040 FM110100 30005KT P6SM BKN250 FM111200 30008KT P6SM SCT080 BKN250 FM111600 28010G16KT P6SM BKN100 FM111800 27012G20KT P6SM BKN100
KJFK 
12nm E 
101741Z 1018/1124 32011KT P6SM BKN035 FM101900 32009KT P6SM VCSH BKN035 FM102200 30007KT P6SM BKN050 FM110200 30008KT P6SM SCT250 FM111200 30012KT P6SM SCT100 BKN250 FM111600 29013G20KT P6SM BKN100 FM111800 25016G22KT P6SM BKN100
NOTAMs
Click for the latest NOTAMs
NOTAMs are issued by the DoD/FAA and will open in a separate window not controlled by AirNav.

 

 
 

FBO, Fuel Providers, and Aircraft Ground Support

  
 Business Name 
 
 Contact 
 
 Services / Description 
 
Fuel Prices
 
Comments
  
 Saker Aviation Services, Inc.
212-248-7240
212-248-7241
[web site]
[email]

Like us on facebook Follow us on twitter
Airport management, Aviation fuel, Aircraft parking (ramp or tiedown), Passenger terminal and lounge, Aerial tours / aerial sightseeing, Aircraft charters, ...

More info about Saker Aviation Services, Inc.
Avfuel
Jet A
FS $8.39 
 Updated 07-May-2021
 
   write
FS=Full service
Update Fuel Prices
 

Would you like to see your business listed on this page?

 If your business provides an interesting product or service to pilots, flight crews, aircraft, or users of the Downtown Manhattan/Wall Street Heliport, you should consider listing it here.  To start the listing process, click on the button below
 
Add a business
 

Other Pages about Downtown Manhattan/Wall Street Heliport

www.panynj.gov/...
www.downtownmanhattanheliport.com
 
Update a link
 
Copyright © AirNav, LLC. All rights reserved. Privacy Policy  Contact